Marfa, TX

6:18 AM CST on February 09, 2016 (GMT -0600)
Marfa Municipal

Weather History for KMRF - July, 2013

Change the Weather History Date:

Thursday, July 11, 2013

  Actual Average Record
Temperature  
Mean Temperature 76 °F -  
Max Temperature 89 °F 85 °F 95 °F (1998)
Min Temperature 62 °F 59 °F 55 °F (2005)
Cooling Degree Days 10    
Growing Degree Days 26 (Base 50)    
Moisture  
Dew Point 56 °F    
Average Humidity 54    
Maximum Humidity 73    
Minimum Humidity 29    
Precipitation  
Precipitation 0.30 in - - ()
Sea Level Pressure  
Sea Level Pressure 30.18 in    
Wind  
Wind Speed 6 mph (East)    
Max Wind Speed 24 mph    
Max Gust Speed 36 mph    
Visibility 10 miles    
Events Thunderstorm    
Averages and records for this station are not official NWS values.
T = Trace of Precipitation, MM = Missing Value Source: NWS Daily Summary

Daily Weather History Graph

Daily Weather History Graph

Search for Another Location

Airport or City:

Trip Planner

Search our weather history database for the weather conditions in past years. The results will help you decide how hot, cold, wet, or windy it might be!

Date:

Astronomy

Jul. 11, 2013 Rise Set
Actual Time 7:02 AM CDT 9:00 PM CDT
Civil Twilight 6:35 AM CDT 9:27 PM CDT
Nautical Twilight 6:02 AM CDT 10:00 PM CDT
Astronomical Twilight 5:27 AM CDT 10:35 PM CDT
Moon 10:06 AM CDT (7/11) 11:01 PM CDT (7/11)
Length of Visible Light 14h 52m
Length of Day
13h 58m
Waxing Crescent, 11% of the Moon is Illuminated
Jul 11
Waxing Crescent
Jul 15
First Quarter
Jul 22
Full
Jul 29
Last Quarter
Aug 6
New

Hourly Weather History & Observations

Time (CDT) Temp. Heat Index Dew Point Humidity Pressure Visibility Wind Dir Wind Speed Gust Speed Precip Events Conditions
12:15 AM 75.2 °F - 55.4 °F 50% 30.21 in 10.0 mi East 8.1 mph - N/A   Clear
12:35 AM 73.4 °F - 55.4 °F 53% 30.21 in 10.0 mi East 5.8 mph - N/A   Clear
12:55 AM 73.4 °F - 55.4 °F 53% 30.22 in 10.0 mi East 5.8 mph - N/A   Clear
1:15 AM 71.6 °F - 55.4 °F 57% 30.22 in 10.0 mi Calm Calm - N/A   Clear
1:35 AM 71.6 °F - 55.4 °F 57% 30.21 in 10.0 mi Calm Calm - N/A   Clear
1:55 AM 69.8 °F - 53.6 °F 56% 30.21 in 10.0 mi NNE 3.5 mph - N/A   Clear
2:15 AM 69.8 °F - 55.4 °F 60% 30.21 in 10.0 mi NE 3.5 mph - N/A   Clear
2:35 AM 69.8 °F - 53.6 °F 56% 30.21 in 10.0 mi East 3.5 mph - N/A   Clear
2:55 AM 69.8 °F - 53.6 °F 56% 30.21 in 10.0 mi ESE 4.6 mph - N/A   Clear
3:15 AM 68.0 °F - 53.6 °F 60% 30.21 in 10.0 mi East 3.5 mph - N/A   Clear
3:35 AM 69.8 °F - 55.4 °F 60% 30.21 in 10.0 mi Calm Calm - N/A   Clear
3:55 AM 69.8 °F - 55.4 °F 60% 30.21 in 10.0 mi ESE 4.6 mph - N/A   Clear
4:15 AM 68.0 °F - 53.6 °F 60% 30.21 in 10.0 mi SSE 3.5 mph - N/A   Clear
4:35 AM 66.2 °F - 53.6 °F 64% 30.21 in 10.0 mi Calm Calm - N/A   Clear
4:55 AM 66.2 °F - 55.4 °F 68% 30.20 in 10.0 mi Calm Calm - N/A   Clear
5:15 AM 66.2 °F - 55.4 °F 68% 30.20 in 10.0 mi Calm Calm - N/A   Clear
5:35 AM 64.4 °F - 53.6 °F 68% 30.20 in 10.0 mi West 3.5 mph - N/A   Clear
5:55 AM 64.4 °F - 53.6 °F 68% 30.20 in 10.0 mi Calm Calm - N/A   Clear
6:15 AM 62.6 °F - 51.8 °F 68% 30.21 in 10.0 mi NNW 3.5 mph - N/A   Clear
6:35 AM 62.6 °F - 51.8 °F 68% 30.21 in 10.0 mi Calm Calm - N/A   Clear
6:55 AM 62.6 °F - 51.8 °F 68% 30.21 in 10.0 mi North 5.8 mph - N/A   Clear
7:15 AM 62.6 °F - 51.8 °F 68% 30.21 in 10.0 mi North 5.8 mph - N/A   Clear
7:35 AM 62.6 °F - 53.6 °F 72% 30.21 in 10.0 mi Calm Calm - N/A   Clear
7:55 AM 64.4 °F - 53.6 °F 68% 30.21 in 10.0 mi North 3.5 mph - N/A   Clear
8:15 AM 69.8 °F - 55.4 °F 60% 30.22 in 10.0 mi Calm Calm - N/A   Scattered Clouds
8:35 AM 71.6 °F - 55.4 °F 57% 30.22 in 10.0 mi Calm Calm - N/A   Partly Cloudy
8:55 AM 71.6 °F - 57.2 °F 60% 30.22 in 10.0 mi SE 3.5 mph - N/A   Clear
9:15 AM 73.4 °F - 55.4 °F 53% 30.23 in 10.0 mi South 3.5 mph - N/A   Clear
9:35 AM 75.2 °F - 57.2 °F 53% 30.23 in 10.0 mi South 5.8 mph - N/A   Clear
9:55 AM 75.2 °F - 57.2 °F 53% 30.23 in 10.0 mi South 4.6 mph - N/A   Clear
10:15 AM 78.8 °F - 57.2 °F 47% 30.23 in 10.0 mi South 6.9 mph - N/A   Clear
10:35 AM 78.8 °F - 57.2 °F 47% 30.22 in 10.0 mi SSW 5.8 mph - N/A   Clear
10:55 AM 80.6 °F 80.8 °F 57.2 °F 45% 30.22 in 10.0 mi SSW 10.4 mph - N/A   Clear
11:15 AM 82.4 °F 82.0 °F 57.2 °F 42% 30.22 in 10.0 mi SW 6.9 mph - N/A   Clear
11:35 AM 80.6 °F 80.8 °F 57.2 °F 45% 30.21 in 10.0 mi South 3.5 mph - N/A   Clear
11:55 AM 82.4 °F 82.0 °F 57.2 °F 42% 30.21 in 10.0 mi SSE 5.8 mph - N/A   Clear
12:15 PM 82.4 °F 81.7 °F 55.4 °F 39% 30.21 in 10.0 mi SW 6.9 mph - N/A   Clear
12:35 PM 84.2 °F 83.0 °F 55.4 °F 37% 30.20 in 10.0 mi SE 4.6 mph - N/A   Scattered Clouds
12:55 PM 84.2 °F 83.0 °F 55.4 °F 37% 30.19 in 10.0 mi SSE 4.6 mph - N/A   Scattered Clouds
1:15 PM 84.2 °F 83.0 °F 55.4 °F 37% 30.18 in 10.0 mi ESE 6.9 mph - N/A   Partly Cloudy
1:35 PM 87.8 °F 86.1 °F 55.4 °F 33% 30.18 in 10.0 mi SSE 5.8 mph - N/A   Scattered Clouds
1:55 PM 84.2 °F 82.8 °F 53.6 °F 35% 30.17 in 10.0 mi ESE 3.5 mph - N/A   Mostly Cloudy
2:15 PM 89.6 °F 87.7 °F 55.4 °F 31% 30.17 in 10.0 mi North 5.8 mph 18.4 mph N/A   Scattered Clouds
2:35 PM 87.8 °F 86.1 °F 55.4 °F 33% 30.16 in 10.0 mi East 9.2 mph - N/A   Mostly Cloudy
2:55 PM 87.8 °F 85.7 °F 53.6 °F 31% 30.16 in 10.0 mi Calm Calm - N/A   Mostly Cloudy
3:15 PM 87.8 °F 85.7 °F 53.6 °F 31% 30.14 in 10.0 mi SSE 8.1 mph - N/A   Clear
3:35 PM 89.6 °F 87.3 °F 53.6 °F 29% 30.14 in 10.0 mi SE 4.6 mph - N/A   Clear
3:55 PM 87.8 °F 85.7 °F 53.6 °F 31% 30.14 in 10.0 mi ESE 16.1 mph 28.8 mph N/A   Mostly Cloudy
4:15 PM 84.2 °F 83.0 °F 55.4 °F 37% 30.13 in 10.0 mi NNE 5.8 mph - N/A Thunderstorm Mostly Cloudy
4:35 PM 86.0 °F 84.2 °F 53.6 °F 33% 30.13 in 10.0 mi North 9.2 mph - N/A Thunderstorm Thunderstorm
4:55 PM 84.2 °F 83.0 °F 55.4 °F 37% 30.13 in 10.0 mi NW 10.4 mph - N/A Thunderstorm Thunderstorm
5:15 PM 73.4 °F - 59.0 °F 61% 30.12 in 7.0 mi South 10.4 mph 35.7 mph 0.20 in Thunderstorm Thunderstorm
5:35 PM 73.4 °F - 57.2 °F 57% 30.14 in 10.0 mi SSE 13.8 mph 29.9 mph 0.27 in Thunderstorm Thunderstorm
5:55 PM 75.2 °F - 59.0 °F 57% 30.13 in 10.0 mi WNW 16.1 mph 21.9 mph 0.30 in Thunderstorm Thunderstorm
6:15 PM 75.2 °F - 59.0 °F 57% 30.13 in 10.0 mi NW 23.0 mph - N/A Thunderstorm Overcast
6:35 PM 71.6 °F - 60.8 °F 69% 30.13 in 10.0 mi NW 19.6 mph - N/A Thunderstorm Overcast
6:55 PM 73.4 °F - 59.0 °F 61% 30.12 in 10.0 mi NW 24.2 mph 27.6 mph N/A   Overcast
7:15 PM 71.6 °F - 59.0 °F 64% 30.12 in 10.0 mi NW 21.9 mph 27.6 mph N/A   Overcast
7:35 PM 73.4 °F - 57.2 °F 57% 30.12 in 10.0 mi NW 19.6 mph - N/A   Overcast
7:55 PM 73.4 °F - 55.4 °F 53% 30.11 in 10.0 mi NW 11.5 mph 21.9 mph N/A   Scattered Clouds
8:15 PM 71.6 °F - 57.2 °F 60% 30.10 in 10.0 mi North 9.2 mph - N/A   Clear
8:35 PM 71.6 °F - 59.0 °F 64% 30.10 in 10.0 mi NE 9.2 mph - N/A   Clear
8:55 PM 69.8 °F - 60.8 °F 73% 30.09 in 10.0 mi NE 10.4 mph - N/A   Clear
9:15 PM 69.8 °F - 59.0 °F 68% 30.10 in 10.0 mi ENE 8.1 mph - N/A   Clear
9:35 PM 69.8 °F - 59.0 °F 68% 30.10 in 10.0 mi ENE 8.1 mph - N/A   Clear
9:55 PM 69.8 °F - 57.2 °F 64% 30.11 in 10.0 mi ENE 6.9 mph - N/A   Clear
10:15 PM 69.8 °F - 57.2 °F 64% 30.13 in 10.0 mi East 6.9 mph - N/A   Clear
10:35 PM 69.8 °F - 57.2 °F 64% 30.13 in 10.0 mi ESE 5.8 mph - N/A   Clear
10:55 PM 69.8 °F - 57.2 °F 64% 30.14 in 10.0 mi Calm Calm - N/A   Clear
11:15 PM 68.0 °F - 57.2 °F 68% 30.15 in 10.0 mi Calm Calm - N/A   Clear
11:35 PM 69.8 °F - 57.2 °F 64% 30.15 in 10.0 mi East 4.6 mph - N/A   Clear
11:55 PM 69.8 °F - 57.2 °F 64% 30.16 in 10.0 mi Calm Calm - N/A   Clear